GSAT0217 (GALILEO 21)

Last updated on Fri Oct 11 2024 00:02:28 GMT+0000 (Coordinated Universal Time)

1 43057U 17079C 24283.61595701 .00000026 00000+0 00000+0 0 9992 2 43057 55.2939 238.4463 0003772 299.0256 60.9198 1.70473876 42491
UTC large
Height (km)
Speed (km/s)
/
Latitude / Longitude
Inclination (degrees)
Orbital Period (minutes)
Azimuth
Elevation
Range (km)
Doppler Factor

Next 0 passes for location: London (51.5072 / 0.1276)

Sorry there are no passes over London.